This is the latest recevied weather packets stored in our database for station/object W1RCP. If no packets are shown the sender has not sent any weather packets the latest 10 day(s).
| Time | Temp. | Humidity | Pressure | Rain* | Wind** | Luminosity | Snow |
|---|---|---|---|---|---|---|---|
| 1778042890 | 18.33° C | 79% | 1026.5 hPa | 0 mm | - | 0 W/m² | - |
| 1778042588 | 18.33° C | 79% | 1026.5 hPa | 0 mm | - | 0 W/m² | - |
| 1778042285 | 18.33° C | 79% | 1026.4 hPa | 0 mm | - | 0 W/m² | - |
| 1778041982 | 18.89° C | 78% | 1026.5 hPa | 0 mm | - | 0 W/m² | - |
| 1778041681 | 18.89° C | 77% | 1026.4 hPa | 0 mm | - | 0 W/m² | - |
| 1778041379 | 18.89° C | 77% | 1026.5 hPa | 0 mm | - | 0 W/m² | - |
| 1778041077 | 18.89° C | 76% | 1026.5 hPa | 0 mm | - | 0 W/m² | - |
| 1778040774 | 18.89° C | 76% | 1026.5 hPa | 0 mm | - | 0 W/m² | - |
| 1778040471 | 19.44° C | 75% | 1026.5 hPa | 0 mm | - | 0 W/m² | - |
| 1778040168 | 18.89° C | 75% | 1026.4 hPa | 0 mm | - | 0 W/m² | - |
| 1778039865 | 18.89° C | 75% | 1026.5 hPa | 0 mm | - | 0 W/m² | - |
| 1778039562 | 18.89° C | 75% | 1026.7 hPa | 0 mm | - | 0 W/m² | - |
| 1778039259 | 19.44° C | 74% | 1026.5 hPa | 0 mm | - | 0 W/m² | - |
| 1778038956 | 20° C | 73% | 1026.4 hPa | 0 mm | - | 0 W/m² | - |
| 1778038653 | 20° C | 72% | 1026.3 hPa | 0 mm | - | 0 W/m² | - |
| 1778038350 | 20° C | 72% | 1026.4 hPa | 0 mm | - | 0 W/m² | - |
| 1778038047 | 20° C | 72% | 1026.1 hPa | 0 mm | - | 0 W/m² | - |
| 1778037744 | 19.44° C | 73% | 1026.3 hPa | 0 mm | - | 0 W/m² | - |
| 1778037440 | 19.44° C | 73% | 1026.3 hPa | 0 mm | - | 0 W/m² | - |
| 1778037138 | 18.89° C | 74% | 1026.4 hPa | 0 mm | - | 0 W/m² | - |
| 1778036836 | 18.89° C | 74% | 1026.5 hPa | 0 mm | - | 0 W/m² | - |
| 1778036533 | 18.89° C | 74% | 1026.4 hPa | 0 mm | - | 0 W/m² | - |
| 1778036230 | 19.44° C | 72% | 1026.6 hPa | 0 mm | - | 0 W/m² | - |
| 1778035926 | 19.44° C | 72% | 1026.5 hPa | 0 mm | - | 0 W/m² | - |
| 1778035623 | 19.44° C | 71% | 1026.3 hPa | 0 mm | - | 0 W/m² | - |
* Rain latest hour (hover to see other rain measurements)
** Current wind speed in m/s (hover to see current wind gust speed)